Regional Weather Roundup
Issued by NWS

Home | Current Version | Previous Version | Graphics & Text | Print | Product List | Glossary On
Versions: 1 2 3 4 5 6 7 8 9 10 11 12 13 14 15 16 17 18 19 20 21 22 23 24 25 26 27 28 29 30 31 32 33 34 35 36 37 38 39 40 41 42 43 44 45 46 47 48 49 50
000
ASUS43 KTOP 051508
RWRKS

WEATHER ROUNDUP FOR KANSAS
NATIONAL WEATHER SERVICE GOODLAND KS
1000 AM CDT TUE MAY 05 2015

NOTE:  "FAIR" INDICATES FEW OR NO CLOUDS BELOW 12,000 FEET WITH NO
SIGNIFICANT WEATHER AND/OR OBSTRUCTIONS TO VISIBILITY.

KSZ001>006-013>018-027>032-041>047-051600-
NORTHWEST KANSAS

CITY           SKY/WX    TMP DP  RH WIND       PRES   REMARKS
GOODLAND       CLOUDY    55  55 100 E9        29.99F
HAYS           CLOUDY    64  54  68 SE16      30.01R
HILL CITY      CLOUDY    63  59  87 SE8       30.00S
RUSSELL        CLOUDY    65  58  78 S14       30.00S
$$

KSZ061>065-074>080-084>089-051600-
SOUTHWEST KANSAS

CITY           SKY/WX    TMP DP  RH WIND       PRES   REMARKS
DODGE CITY     RAIN      58  55  90 SE14      29.99S FOG
ELKHART          N/A     56  52  87 NE7         N/A
GARDEN CITY    LGT RAIN  58  57  97 SE18      29.94F FOG
GREAT BEND     CLOUDY    64  55  72 SE15G22   30.00F
LIBERAL        CLOUDY    57  54  88 E14       29.92F
PRATT          CLOUDY    63  52  67 SE17      30.02F
$$

KSZ066>073-081>083-090>101-051600-
SOUTHEAST KANSAS

CITY           SKY/WX    TMP DP  RH WIND       PRES   REMARKS
CHANUTE        PTSUNNY   74  59  59 S16       30.11R
COFFEYVILLE    PTSUNNY   72  59  63 S14       30.10S
HUTCHINSON     CLOUDY    70  54  56 S18G25    30.03F
MEDICINE LODGE   N/A     65  55  70 SE10      30.01F
NEWTON         CLOUDY    66  54  63 S16G24    30.08S
PARSONS        PTSUNNY   72  59  63 MISG      30.12R
WICHITA INTL   CLOUDY    69  56  62 S14       30.04F
WICHITA JABRA  CLOUDY    70  56  61 S16G22    30.05F
WICHITA MCCONL CLOUDY    69  56  65 SE16      30.06S
WINFIELD       CLOUDY    68  57  68 SE14G21   30.08R
$$

KSZ007>012-019>026-033>040-048>060-102>105-051600-
NORTHEAST KANSAS

CITY           SKY/WX    TMP DP  RH WIND       PRES   REMARKS
CONCORDIA      MOSUNNY   68  58  70 S13       30.05R
EMPORIA        PTSUNNY   69  58  67 S16       30.08S
LAWRENCE       MOSUNNY   72  60  66 S8        30.10S
MANHATTAN      PTSUNNY   70  60  70 S12       30.06S
MARYSVILLE     CLOUDY    64  61  88 SE8       30.07S
OLATHE IND     SUNNY     72  60  66 S12       30.12S
OLATHE EXE     SUNNY     71  61  70 S9        30.11S
SALINA         CLOUDY    67  59  75 SE12      30.04S
TOPEKA BILLARD CLOUDY    71  60  68 S12       30.10R
TOPEKA FORBES  MOSUNNY   71  60  68 S9        30.09S
$$


USA.gov is the U.S. government's official web portal to all federal, state and local government web resources and services.